This is the latest recevied weather packets stored in our database for station/object AF9W-5. If no packets are shown the sender has not sent any weather packets the latest 1 day(s).
| Time | Temp. | Humidity | Pressure | Rain* | Wind** | Luminosity | Snow |
|---|---|---|---|---|---|---|---|
| 1778013802 | 22.22° C | 47% | 1010.7 hPa | 0 mm | 1.34 m/s, 235° | 284 W/m² | - |
| 1778013499 | 21.67° C | 48% | 1010.8 hPa | 0 mm | 0.45 m/s, 177° | 944 W/m² | - |
| 1778013196 | 21.11° C | 48% | 1010.8 hPa | 0 mm | 0.89 m/s, 341° | 965 W/m² | - |
| 1778012892 | 21.11° C | 44% | 1010.7 hPa | 0 mm | 3.58 m/s, 172° | 217 W/m² | - |
| 1778012588 | 21.67° C | 47% | 1010.9 hPa | 0 mm | 1.34 m/s, 189° | 898 W/m² | - |
| 1778012285 | 21.67° C | 49% | 1010.7 hPa | 0 mm | 1.79 m/s, 168° | 910 W/m² | - |
| 1778011983 | 21.67° C | 47% | 1010.9 hPa | 0 mm | 1.34 m/s, 165° | 190 W/m² | - |
| 1778011681 | 22.22° C | 46% | 1011 hPa | 0 mm | 1.34 m/s, 326° | 866 W/m² | - |
| 1778011377 | 21.11° C | 46% | 1011 hPa | 0 mm | 0.45 m/s, 187° | 910 W/m² | - |
| 1778011072 | 21.11° C | 50% | 1011.3 hPa | 0 mm | 2.24 m/s, 229° | 167 W/m² | - |
| 1778010770 | 19.44° C | 55% | 1011.2 hPa | 0 mm | 2.24 m/s, 213° | 944 W/m² | - |
| 1778010467 | 20° C | 55% | 1011 hPa | 0 mm | 2.68 m/s, 159° | 146 W/m² | - |
| 1778010164 | 20° C | 55% | 1011.2 hPa | 0 mm | 0.45 m/s, 95° | 248 W/m² | - |
| 1778009859 | 20.56° C | 54% | 1011.2 hPa | 0 mm | 0.45 m/s, 150° | 285 W/m² | - |
| 1778009557 | 21.11° C | 53% | 1011.3 hPa | 0 mm | 0.45 m/s, 132° | 239 W/m² | - |
| 1778009256 | 20.56° C | 55% | 1011.3 hPa | 0 mm | 1.34 m/s, 213° | 345 W/m² | - |
| 1778008953 | 20.56° C | 54% | 1011.2 hPa | 0 mm | 1.34 m/s, 156° | 997 W/m² | - |
| 1778008651 | 20° C | 55% | 1011.4 hPa | 0 mm | 2.24 m/s, 189° | 268 W/m² | - |
| 1778008349 | 20.56° C | 54% | 1011.2 hPa | 0 mm | 1.34 m/s, 184° | 959 W/m² | - |
| 1778008045 | 20.56° C | 53% | 1011.5 hPa | 0 mm | 1.79 m/s, 155° | 997 W/m² | - |
| 1778007745 | 20° C | 55% | 1011.7 hPa | 0 mm | 0.89 m/s, 166° | 939 W/m² | - |
| 1778007441 | 19.44° C | 57% | 1011.7 hPa | 0 mm | 1.34 m/s, 178° | 928 W/m² | - |
| 1778007139 | 18.89° C | 61% | 1012 hPa | 0 mm | 2.24 m/s, 171° | 907 W/m² | - |
| 1778006834 | 18.89° C | 62% | 1011.9 hPa | 0 mm | 0.45 m/s, 80° | 326 W/m² | - |
| 1778006532 | 18.89° C | 60% | 1011.7 hPa | 0 mm | 2.24 m/s, 165° | 261 W/m² | - |
* Rain latest hour (hover to see other rain measurements)
** Current wind speed in m/s (hover to see current wind gust speed)